TimeMST,TemperatureF,Dew PointF,Humidity,Sea Level PressureIn,VisibilityMPH,Wind Direction,Wind SpeedMPH,Gust SpeedMPH,PrecipitationIn,Events,Conditions,WindDirDegrees,DateUTC
12:00 AM,37.4,26.6,65,29.44,9.0,SSW,15.0,23.0,N/A,,Overcast,210,2013-02-23 07:00:00
1:00 AM,37.4,26.6,65,29.44,9.0,SSW,15.0,21.9,N/A,,Overcast,200,2013-02-23 08:00:00
2:00 AM,35.6,26.6,70,29.45,9.0,SSW,12.7,18.4,N/A,,Mostly Cloudy,210,2013-02-23 09:00:00
3:00 AM,35.6,26.6,70,29.45,9.0,SSW,13.8,20.7,N/A,,Mostly Cloudy,210,2013-02-23 10:00:00
4:00 AM,33.8,26.6,75,29.47,9.0,SW,12.7,-,N/A,,Mostly Cloudy,220,2013-02-23 11:00:00
5:00 AM,-43,-51,43,30.48,,SSE,4.6,,,,,160,2013-02-23 12:00:00
5:18 AM,37.4,26.6,65,29.47,9.0,SW,23.0,29.9,N/A,,Overcast,230,2013-02-23 12:18:00
6:00 AM,35.6,26.6,70,29.49,15.0,SSW,17.3,24.2,N/A,,Overcast,210,2013-02-23 13:00:00
7:00 AM,35.6,26.6,70,29.50,30.0,SW,15.0,25.3,N/A,,Overcast,230,2013-02-23 14:00:00
8:00 AM,32.0,24.8,75,29.54,30.0,SW,11.5,-,N/A,,Mostly Cloudy,220,2013-02-23 15:00:00
9:00 AM,37.4,24.8,60,29.57,30.0,SW,13.8,-,N/A,,Mostly Cloudy,220,2013-02-23 16:00:00
10:00 AM,39.2,23.0,52,29.57,30.0,SW,19.6,-,N/A,,Mostly Cloudy,220,2013-02-23 17:00:00
11:00 AM,-41,-48,47,30.43,,SSE,3.5,,,,,160,2013-02-23 18:00:00
11:00 AM,41.0,24.8,53,29.58,30.0,SW,24.2,-,N/A,,Mostly Cloudy,230,2013-02-23 18:00:00
12:00 PM,39.2,24.8,56,29.60,30.0,WSW,13.8,-,N/A,,Mostly Cloudy,250,2013-02-23 19:00:00
1:00 PM,37.4,21.2,52,29.64,30.0,NNW,21.9,-,N/A,,Mostly Cloudy,330,2013-02-23 20:00:00
2:00 PM,37.4,24.8,60,29.70,30.0,NW,17.3,25.3,N/A,,Mostly Cloudy,310,2013-02-23 21:00:00
3:00 PM,35.6,28.4,75,29.74,30.0,WNW,16.1,25.3,N/A,,Mostly Cloudy,300,2013-02-23 22:00:00
4:00 PM,37.4,26.6,65,29.80,30.0,NNW,16.1,23.0,N/A,,Mostly Cloudy,330,2013-02-23 23:00:00
5:00 PM,-46,-54,43,30.40,,Calm,Calm,,,,,,2013-02-24 00:00:00
5:00 PM,35.6,26.6,70,29.83,30.0,NW,17.3,24.2,N/A,,Scattered Clouds,310,2013-02-24 00:00:00
6:00 PM,33.8,26.6,75,29.88,30.0,NW,9.2,-,N/A,,Partly Cloudy,310,2013-02-24 01:00:00
7:00 PM,30.2,26.6,86,29.93,15.0,Variable,2.3,-,N/A,,Partly Cloudy,0,2013-02-24 02:00:00
8:00 PM,28.4,26.6,93,29.98,15.0,Calm,Calm,-,N/A,,Clear,0,2013-02-24 03:00:00
9:00 PM,26.6,24.8,93,30.01,9.0,SW,3.5,-,N/A,,Clear,230,2013-02-24 04:00:00
10:00 PM,24.8,23.0,93,30.03,9.0,WSW,6.9,-,N/A,,Clear,240,2013-02-24 05:00:00
11:00 PM,-46,-55,38,30.35,,Calm,Calm,,,,,,2013-02-24 06:00:00
11:00 PM,26.6,24.8,93,30.05,9.0,West,6.9,-,N/A,,Clear,260,2013-02-24 06:00:00